Tracking 19177 objects as of 24-May-2018
HD Live streaming from Space Station
objects crossing your sky now

NTS 2

Track NTS 2 now!
NTS 2 is classified as:


NORAD ID: 10091
Int'l Code: 1977-053A
Perigee: 20,032.1 km
Apogee: 20,366.9 km
Inclination: 64.5 °
Period: 718.4 minutes
Semi major axis: 26570 km
RCS: 3.8343 m2 (large)
Launch date: June 23, 1977
Source: United States (US)
Launch site: AIR FORCE WESTERN TEST RANGE (AFWTR)
aabbcc
Your satellite tracking list
Your tracking list is empty




NASA's NSSDC Master Catalog

Two Line Element Set (TLE):
1 10091U 77053A   18144.09300003 -.00000072  00000-0  00000+0 0  9995
2 10091  64.5380  12.9460 0063007 230.3285 325.9260  2.00448643299615
Source of the keplerian elements: AFSPC